Regional Weather Roundup
Issued by NWS

Home | Current Version | Previous Version | Text Only | Print | Product List | Glossary On
Versions: 1 2 3 4 5 6 7 8 9 10 11 12 13 14 15 16 17 18 19 20 21 22 23 24 25 26 27 28 29 30 31 32 33 34 35 36 37 38 39 40 41 42 43 44 45 46 47 48 49 50
000
ASUS44 KFWD 031510
RWRTX
NORTH TEXAS HOURLY WEATHER ROUNDUP
NATIONAL WEATHER SERVICE FORT WORTH TX
1000 AM CDT THU SEP 03 2015

NOTE: "FAIR" INDICATES FEW OR NO CLOUDS BELOW 12,000 FEET WITH NO
SIGNIFICANT WEATHER AND/OR OBSTRUCTIONS TO VISIBILITY.

TXZ118-119-031600-
DALLAS/FORT WORTH METROPLEX

CITY           SKY/WX    TMP DP  RH WIND       PRES   REMARKS
DFW AIRPORT    MOSUNNY   82  69  64 S6        29.98F
DALLAS LOVE    MOSUNNY   82  69  64 VRB3      29.99S
FTW MEACHAM    SUNNY     82  69  64 VRB6      29.98F
DAL-EXECUTIVE  SUNNY     81  69  67 SE8       29.99S
FTW-ALLIANCE   MOSUNNY   83  69  62 S7        29.99S
FTW-NAS-JRB    MOSUNNY   82  70  66 S7        29.99S
FTW-SPINKS     SUNNY     81  70  69 CALM      30.00F
ARLINGTON      SUNNY     82  69  64 SE7       29.99S
GRAND PRAIRIE  SUNNY     81  70  69 S7        30.01S
ADDISON        SUNNY     82  68  61 SE6       30.00S
MESQUITE       SUNNY     81  70  69 SE5       30.00S
LANCASTER      SUNNY     81  68  65 SE3       30.00S
$$

TXZ091>094-102>105-117-120-121-131>134-031600-
NORTH CENTRAL TEXAS

CITY           SKY/WX    TMP DP  RH WIND       PRES   REMARKS
SHRMAN/DENISON SUNNY     85  70  60 S8        30.01S
GAINESVILLE    SUNNY     83  66  57 S10       30.01S
BOWIE          SUNNY     82  66  57 S8        30.01R
BRIDGEPORT     SUNNY     83  68  59 S6        30.02R
DECATUR        SUNNY     81  65  57 S8        30.01R
DENTON         SUNNY     82  69  64 S6        29.99S
MCKINNEY       SUNNY     81  69  67 S6        30.00S
GREENVILLE     SUNNY     82  68  61 SW5       30.00F
ROCKWALL       SUNNY     82  71  69 CALM      29.99S
TERRELL        SUNNY     81  70  69 S5        30.00S
WAXAHACHIE     SUNNY     80  71  73 S3        30.01S
CLEBURNE       SUNNY     81  72  74 S6        30.01S
GRANBURY       SUNNY     82  69  64 E3        30.00S
$$

TXZ083>090-098>101-113>116-127>130-139>142-154-155-031600-
WESTERN NORTH TEXAS

CITY           SKY/WX    TMP DP  RH WIND       PRES   REMARKS
WICHITA FALLS  MOSUNNY   83  65  54 S12       29.98S
WF-KICKAPOO    MOSUNNY   83  65  54 S10       30.00R
VERNON         MOSUNNY   82  59  46 S13       29.98S
ABILENE        SUNNY     81  67  62 S14       30.02R
ABILENE-DYESS  SUNNY     83  67  60 S12       30.00R
BRECKENRIDGE   SUNNY     83  64  52 SW9       30.00S
GRAHAM         MOSUNNY   83  67  57 S7        29.98S
MINERAL WELLS  SUNNY     80  68  66 SE6       29.98S
STEPHENVILLE   SUNNY     79  68  69 CALM      30.03S
COMANCHE       SUNNY     82  69  64 S3        30.01S
COLEMAN        SUNNY     80  67  66 SW5       30.03R
BRADY          SUNNY     81  70  69 S7        30.01S
$$

TXZ143>147-156>162-174-175-031600-
CENTRAL TEXAS

CITY           SKY/WX    TMP DP  RH WIND       PRES   REMARKS
WACO           SUNNY     81  70  69 S5        29.99S
WACO-TSTC      MOSUNNY   81  72  74 CALM      29.99S
WACO-MCGREGOR  SUNNY     81  72  74 VRB3      29.99S
HILLSBORO      SUNNY     79  70  72 S3        30.00S
CORSICANA      MOSUNNY   80  71  74 SE6       30.01R
MEXIA          CLOUDY    78  73  82 E9        29.99S
HEARNE         CLOUDY    75  73  92 CALM      30.00S
CAMERON        PTSUNNY   80  73  77 CALM      29.98S
TEMPLE         MOSUNNY   79  68  69 S3        29.99S
KILLEEN        MOSUNNY   81  69  68 SW5       29.99S
KILLEEN-SKYLRK MOSUNNY   81  68  65 S5        29.99R
FORT HOOD      MOSUNNY   79  70  72 VRB3      29.98S
GATESVILLE     MOSUNNY   81  70  69 CALM      30.02S
HAMILTON       SUNNY     81  66  59 S5        30.02S
$$

TXZ095>097-106>112-122>126-135>138-148>153-164>167-031600-
EAST TEXAS

CITY           SKY/WX    TMP DP  RH WIND       PRES   REMARKS
PARIS          SUNNY     81  64  57 S6        30.01S
SULPHUR SPRNGS SUNNY     83  67  58 S6        30.02S
MOUNT PLEASANT SUNNY     83  67  59 SE6       30.02F
GILMER         SUNNY     78  71  80 CALM      30.01S
MINEOLA        SUNNY     81  72  74 CALM      30.02R
TYLER          PTSUNNY   81  71  71 SE7       30.01S
LONGVIEW       PTSUNNY   80  72  76 S5        30.01R
MARSHALL       SUNNY     80  74  79 CALM      30.04S
ATHENS         CLOUDY    75  72  88 CALM      29.99S
PALESTINE      MOSUNNY   78  73  83 E5        30.01S
JACKSONVILLE   PTSUNNY   80  70  73 E6        30.03S
HENDERSON      MOSUNNY   79  70  73 CALM      30.02S
CENTER         FAIR      82  73  73 CALM      30.01S
NACOGDOCHES    CLOUDY    79  73  83 SE7       30.00S
LUFKIN         PTSUNNY   80  73  79 VRB3      30.00R
$$

SUPPLEMENTAL OBSERVATIONS (CENTRAL)

CITY           SKY/WX    TMP DP  RH WIND       PRES   REMARKS
CADDO GRASSLND   N/A     84  68  58 S6          N/A
PAT MAYSE LAKE   N/A     81  70  69 SE2         N/A
GREENVILLE       N/A     84  68  58 S3          N/A
CEDAR HILL       N/A     84  68  58 S2          N/A
MCGREGOR         N/A     82  70  65 SW3         N/A
TEMPLE           N/A     82  72  69 SE1         N/A
$$

SUPPLEMENTAL OBSERVATIONS (WEST)

CITY           SKY/WX    TMP DP  RH WIND       PRES   REMARKS
POSSUM KINGDOM   N/A     84  68  58 S7          N/A
LBJ GRASSLAND    N/A     84  70  61 S6          N/A
GRANBURY         N/A     82  68  61 E5          N/A
HAMBY            N/A     82  64  54 S12         N/A
IVIE RESERVOIR   N/A     82  66  57 SW5         N/A
COLORADO BEND    N/A     81  66  61 S5          N/A
$$

SUPPLEMENTAL OBSERVATIONS (EAST)

CITY           SKY/WX    TMP DP  RH WIND       PRES   REMARKS
CLARKSVILLE      N/A     84  68  58 E2          N/A
TEXARKANA        N/A     82  72  69 SE5         N/A
LINDEN           N/A     84  68  58 S2          N/A
GILMER           N/A     81  72  74 S5          N/A
HENDERSON        N/A     81  70  69 S6          N/A
LUFKIN           N/A     79  72  78 MISG        N/A
N SABINE NF      N/A     82  75  78 MISG        N/A
S SABINE NF      N/A     82  73  74 E5          N/A
$$

SUPPLEMENTAL OBSERVATIONS ARE A COLLECTION OF AUTOMATED INSTRUMENTS
THAT ARE MAINTAINED BY A VARIETY OF FEDERAL AND STATE AGENCIES.
CERTAIN ELEMENTS...SUCH AS HUMIDITY VALUES AND SUSTAINED WIND
SPEEDS...MAY BE APPROXIMATED.




USA.gov is the U.S. government's official web portal to all federal, state and local government web resources and services.